This is the latest recevied weather packets stored in our database for station/object WA4OPQ-1. If no packets are shown the sender has not sent any weather packets the latest 10 day(s).
| Time | Temp. | Humidity | Pressure | Rain* | Wind** | Luminosity | Snow |
|---|---|---|---|---|---|---|---|
| 1787839612 | 21.67° C | 99% | 1013.4 hPa | 0 mm | 0 m/s | 131 W/m² | - |
| 1787839113 | 21.11° C | 99% | 1013.4 hPa | 0 mm | 0 m/s | 180 W/m² | - |
| 1787838563 | 20.56° C | 99% | 1013.1 hPa | 0 mm | 0 m/s | 139 W/m² | - |
| 1787838018 | 21.11° C | 99% | 1013.3 hPa | 0 mm | 0 m/s | 116 W/m² | - |
| 1787837518 | 20.56° C | 99% | 1013.5 hPa | 0 mm | 0 m/s | 106 W/m² | - |
| 1787836953 | 20.56° C | 99% | 1013.6 hPa | 0 mm | 0 m/s | 146 W/m² | - |
| 1787836408 | 20° C | 99% | 1013.4 hPa | 0 mm | 0 m/s | 99 W/m² | - |
| 1787835893 | 19.44° C | 99% | 1013.7 hPa | 0 mm | 0 m/s | 98 W/m² | - |
| 1787835402 | 18.89° C | 99% | 1013.6 hPa | 0 mm | 0 m/s | 69 W/m² | - |
| 1787834913 | 19.44° C | 99% | 1013.5 hPa | 0 mm | 0 m/s | 46 W/m² | - |
| 1787834330 | 18.89° C | 99% | 1013.8 hPa | 0 mm | 0 m/s | 43 W/m² | - |
| 1787833826 | 18.89° C | 99% | 1013.9 hPa | 0 mm | 0 m/s | 38 W/m² | - |
| 1787833338 | 18.33° C | 99% | 1013.6 hPa | 0 mm | 0.45 m/s, 303° | 41 W/m² | - |
| 1787832803 | 18.33° C | 99% | 1013.5 hPa | 0 mm | 0 m/s | 19 W/m² | - |
| 1787832258 | 17.78° C | 99% | 1013.6 hPa | 0 mm | 0 m/s | 16 W/m² | - |
| 1787831680 | 17.78° C | 99% | 1013.5 hPa | 0 mm | 0 m/s | 10 W/m² | - |
| 1787831118 | 17.78° C | 99% | 1013.5 hPa | 0 mm | 0 m/s | 8 W/m² | - |
| 1787830566 | 17.78° C | 99% | 1013.2 hPa | 0 mm | 0 m/s | 8 W/m² | - |
| 1787830033 | 17.78° C | 99% | 1013.5 hPa | 0 mm | 0 m/s | 4 W/m² | - |
| 1787829446 | 17.78° C | 99% | 1013.2 hPa | 0 mm | 0 m/s | 0 W/m² | - |
| 1787828853 | 17.78° C | 99% | 1013.1 hPa | 0 mm | 0 m/s | 0 W/m² | - |
| 1787828368 | 17.78° C | 99% | 1013.2 hPa | 0 mm | 0 m/s | 0 W/m² | - |
| 1787827788 | 17.78° C | 99% | 1013.1 hPa | 0 mm | 0 m/s | 0 W/m² | - |
| 1787827258 | 17.78° C | 99% | 1012.6 hPa | 0 mm | 0 m/s | 0 W/m² | - |
| 1787826733 | 18.33° C | 99% | 1012.8 hPa | 0 mm | 0 m/s | 0 W/m² | - |
* Rain latest hour (hover to see other rain measurements)
** Current wind speed in m/s (hover to see current wind gust speed)